Wind_Speed
26 26 27 28 28 29 30 30 30 27 25 22 18 15 12 10 9 9 9 8 8 8 9 10 11 12 14 15 17 19 21 20 15 8 5 6 6 7 8 9 8 6 5 6 7 5 5 4 4 6 5 3 2 3 2 1 2 4 3 4 4 3 2 2 4 5 5 4 3 4 6 9 6 5 4 5 11 10 9 9 7 8 7 6 9 9 7 7
26 27 28 28 29 30 30 30 30 27 25 22 18 16 14 11 9 8 8 7 7 7 8 9 10 12 14 15 16 18 20 18 12 7 9 7 7 9 10 11 9 7 6 5 5 3 3 2 4 5 1 0 1 2 2 2 3 4 3 4 4 2 4 4 7 6 6 6 6 7 8 8 7 5 2 3 8 7 8 7 5 8 6 7 9 9 8 8
27 28 29 29 30 30 31 30 30 27 25 22 19 17 14 11 9 8 7 6 6 7 7 9 10 12 14 15 16 17 18 13 6 6 10 8 10 11 11 11 8 7 6 4 5 6 5 6 5 3 1 1 2 0 2 1 3 4 4 5 3 4 7 6 9 8 8 10 12 11 9 9 7 4 2 5 9 7 5 3 3 5 3 3 4 6 8 9
28 29 29 30 30 30 31 31 30 28 24 22 19 17 15 12 9 8 7 6 6 6 7 9 10 12 13 15 16 16 13 6 2 5 7 4 8 9 10 10 8 6 5 6 8 11 11 11 7 2 1 2 2 3 7 4 3 3 4 5 3 6 8 7 9 10 11 13 12 11 11 11 6 5 3 5 8 5 3 2 2 4 3 2 2 4 8 9
28 29 30 30 30 31 31 31 30 28 25 22 19 17 15 12 9 8 7 6 6 7 8 9 10 12 13 15 16 14 7 4 3 5 2 4 6 8 8 8 7 6 8 10 11 12 12 10 3 4 2 1 2 7 9 7 6 5 4 6 5 6 9 8 10 12 12 11 11 10 10 9 5 7 4 4 7 2 1 1 2 4 3 3 3 4 6 8
29 30 30 30 30 31 31 31 30 29 25 22 20 17 14 11 9 8 7 6 7 7 8 8 10 12 13 15 14 8 2 1 5 4 4 6 7 7 6 6 6 8 11 10 11 9 7 5 2 5 2 3 9 10 8 6 8 7 5 6 7 8 10 9 10 12 11 11 11 8 8 7 9 8 5 5 7 2 3 3 4 3 3 4 5 6 5 7
30 30 30 31 30 31 31 30 30 29 26 23 20 17 14 12 10 8 7 7 6 7 8 9 10 12 14 14 10 4 3 3 6 3 5 8 8 7 5 6 7 9 10 9 9 7 7 4 5 6 4 7 10 12 10 8 10 10 6 7 10 10 11 11 11 12 11 12 10 9 9 8 10 8 2 5 5 3 3 3 5 5 5 7 6 5 6 6
30 31 31 31 31 30 31 30 30 29 27 24 21 17 14 12 10 8 7 7 6 7 8 9 11 11 13 11 5 3 0 4 3 5 8 9 7 4 4 7 6 8 10 8 6 2 4 3 4 4 5 8 10 11 11 11 10 10 9 8 9 10 11 12 12 13 12 11 9 11 11 9 10 7 4 5 3 1 4 5 6 6 7 7 5 5 6 7
31 31 31 32 31 31 31 31 31 30 27 25 22 18 15 13 10 8 7 7 7 7 8 9 11 11 12 8 2 3 4 2 6 10 9 8 6 3 5 6 5 7 8 10 10 5 3 2 1 4 6 8 9 9 9 10 7 7 10 9 10 10 10 11 12 12 11 7 9 13 12 9 9 7 6 5 4 4 1 5 4 5 6 5 4 4 5 5
31 31 31 32 32 32 31 31 31 30 28 25 22 18 15 13 10 8 8 8 8 8 9 9 10 11 10 5 4 4 3 8 11 9 8 6 4 3 5 5 6 7 8 14 15 4 6 5 4 6 8 7 8 7 8 10 8 9 12 10 11 11 9 11 12 12 11 7 9 12 9 7 4 5 4 2 2 6 2 5 4 5 6 4 4 4 5 5
31 31 31 32 32 32 31 31 31 31 28 26 22 18 15 13 11 9 8 9 9 9 9 9 10 10 7 3 4 1 6 12 12 8 7 6 4 4 6 5 6 7 8 12 12 7 8 11 10 6 6 7 10 10 10 12 12 12 12 10 10 11 8 11 13 11 9 7 10 13 10 7 6 4 3 2 1 5 1 6 5 5 5 4 5 4 5 6
31 31 31 31 32 32 31 31 31 31 29 26 22 18 15 13 11 10 9 10 10 10 10 10 9 7 4 2 3 5 8 12 11 8 7 6 4 3 3 3 7 8 6 9 11 15 18 17 14 7 5 8 9 8 8 10 12 11 10 9 7 8 6 8 9 8 9 8 10 12 10 8 6 4 5 4 3 4 3 7 5 5 4 4 5 3 4 5
31 31 31 31 31 31 32 31 30 30 28 25 21 17 14 12 12 11 10 11 11 11 11 10 7 5 2 0 4 3 9 13 10 9 7 5 4 4 5 7 9 6 5 9 9 15 23 25 21 10 5 8 6 6 8 7 9 8 6 5 4 5 4 4 6 7 7 5 4 5 5 4 5 4 3 4 3 2 7 6 4 6 4 4 4 4 5 6
32 31 30 30 31 31 31 30 30 30 27 24 20 17 14 12 12 12 12 12 12 11 10 9 7 3 0 3 6 1 10 13 11 11 7 6 8 8 6 3 6 8 12 15 14 17 23 27 23 9 4 6 6 7 7 5 5 5 4 3 3 4 3 3 4 7 6 1 3 8 5 2 1 1 3 1 3 5 6 5 5 6 5 5 5 5 5 7
32 31 30 30 30 30 31 30 30 29 27 24 20 16 14 12 13 13 13 13 12 11 10 8 6 2 2 4 5 1 9 12 15 15 9 9 11 7 1 9 17 19 17 17 17 19 22 23 16 6 2 3 5 7 5 4 4 3 4 2 3 4 2 6 6 6 5 1 5 10 5 2 2 1 5 3 3 4 5 5 5 5 6 5 5 5 5 6
32 31 30 29 29 29 30 30 29 29 26 23 20 17 15 14 15 14 14 13 12 12 7 4 4 3 1 3 5 3 8 12 15 15 10 11 12 4 9 13 15 19 17 15 15 18 19 15 8 3 3 4 6 6 4 4 4 4 4 2 1 4 3 4 7 6 4 3 7 8 5 2 1 2 5 3 3 4 5 5 4 5 5 5 4 4 4 5
32 31 29 28 28 28 29 29 29 28 26 23 21 19 17 16 16 15 13 9 7 6 2 0 1 1 1 4 5 3 8 12 13 15 14 13 14 8 15 9 8 13 12 11 13 12 10 7 3 2 4 4 4 5 5 4 2 3 3 3 2 4 4 2 4 7 7 8 8 8 6 4 3 2 4 3 4 4 5 6 4 4 4 3 3 4 4 4
31 30 29 28 27 27 28 29 29 29 26 23 22 21 18 16 13 10 5 2 3 4 2 1 2 3 2 5 4 3 7 13 11 11 14 15 15 11 14 8 4 7 7 7 8 7 4 4 3 3 4 4 4 5 5 2 3 3 3 4 3 4 5 4 1 2 6 11 8 7 7 6 6 2 3 2 5 4 5 5 5 4 4 3 3 3 4 4
30 29 28 27 26 26 27 27 28 28 25 21 21 20 17 14 7 2 1 2 3 3 2 1 1 2 2 5 6 5 7 12 12 11 15 16 14 10 9 7 5 5 4 3 4 3 3 4 4 4 3 3 3 5 6 5 6 7 5 6 6 5 5 4 3 1 3 9 6 7 7 6 6 2 2 1 4 5 5 5 5 4 4 3 3 3 3 4
30 29 28 27 26 26 26 27 27 25 22 21 23 18 12 11 6 4 5 2 2 4 4 4 5 4 5 4 5 7 7 9 9 7 8 8 9 8 5 4 5 5 3 3 1 1 3 4 3 4 5 5 5 6 7 6 7 8 7 7 7 6 5 5 6 3 4 7 4 6 7 6 5 2 2 4 5 5 5 5 5 4 3 3 3 3 3 3
30 29 28 26 25 25 25 25 24 22 19 21 22 11 2 4 3 3 6 6 6 5 5 7 7 8 10 7 7 8 4 4 4 2 6 10 11 7 3 3 5 4 1 3 2 2 4 5 4 6 8 8 8 7 9 8 7 7 7 7 6 6 5 5 5 4 4 5 4 5 8 6 4 1 0 5 6 4 4 5 5 4 3 3 3 3 2 2
30 29 28 26 25 24 23 24 22 18 18 20 19 8 3 8 10 7 3 4 9 9 9 10 8 9 11 14 17 12 6 1 3 1 6 9 6 1 0 3 4 1 2 2 4 4 5 3 6 7 9 9 7 7 9 9 7 7 5 6 5 4 4 5 5 5 4 4 3 6 8 5 4 2 2 2 4 3 3 5 5 5 4 3 3 3 3 4
30 30 29 27 26 24 22 23 18 14 19 19 13 11 13 17 22 18 4 1 7 8 7 7 6 8 10 11 15 11 7 3 3 4 7 11 3 3 4 2 3 2 1 2 4 3 3 3 7 7 9 10 8 6 9 8 6 5 4 5 4 4 4 3 4 5 4 4 5 6 6 3 3 2 2 2 2 4 4 5 5 4 5 4 3 3 3 4
31 31 29 28 27 23 22 20 13 16 22 16 8 14 21 22 26 23 7 1 5 6 5 7 7 7 7 6 6 6 5 4 5 4 9 12 3 1 4 3 3 1 2 4 6 5 2 5 9 9 9 11 9 7 8 7 4 5 4 4 5 4 4 5 6 5 6 4 6 7 6 3 3 3 2 3 3 4 5 6 5 4 4 4 3 3 3 4
31 31 29 29 27 24 22 13 11 22 21 11 11 21 24 22 27 23 6 2 4 5 5 6 4 3 5 3 2 3 3 1 4 10 11 11 8 2 1 3 3 3 5 5 7 4 3 6 11 10 7 9 9 6 6 6 4 4 3 3 5 7 7 8 8 6 5 1 4 4 5 2 3 2 2 3 3 4 3 5 5 4 4 4 4 4 4 4
31 30 29 29 27 27 19 5 12 25 14 7 17 24 22 21 26 20 5 4 4 4 3 3 0 1 4 1 1 3 4 4 5 11 10 12 13 5 1 1 1 4 4 3 4 2 3 7 10 11 9 8 7 4 4 7 6 2 2 2 4 7 10 11 8 5 3 3 4 3 4 1 3 2 3 2 2 4 3 4 4 4 4 4 4 4 4 4
30 30 30 28 27 27 13 3 16 19 5 8 22 23 19 22 24 15 3 5 4 4 1 2 1 1 3 0 3 5 2 5 3 5 6 13 10 3 3 3 1 3 2 4 2 1 5 6 6 10 10 7 5 3 4 7 8 2 3 7 6 4 8 11 8 3 3 2 1 2 4 3 1 3 3 2 3 4 4 4 4 4 4 4 4 4 4 4
29 29 29 26 26 24 11 9 17 11 5 15 22 20 19 21 18 7 5 4 5 4 0 2 1 2 3 2 4 4 3 3 2 3 9 16 8 2 3 5 4 4 2 6 2 4 5 7 7 8 9 6 4 6 7 8 8 3 8 10 6 5 6 7 5 2 1 3 3 2 3 4 2 3 2 3 4 4 5 5 5 5 5 5 6 5 4 4
28 29 28 26 26 19 12 14 15 8 12 19 19 18 20 18 10 4 5 1 4 2 1 1 1 3 2 3 4 1 2 2 3 5 6 11 5 1 4 6 6 5 3 5 5 4 5 9 10 8 7 6 6 10 12 12 8 7 12 9 3 3 3 3 4 2 2 4 1 5 3 4 2 3 3 3 4 6 6 5 6 6 6 7 7 6 5 5
28 28 27 27 25 18 16 18 11 6 15 18 16 17 16 9 4 5 2 2 3 3 2 1 1 2 1 3 3 3 2 1 2 2 1 3 1 2 1 2 3 3 2 3 4 4 3 5 6 5 5 6 10 12 10 14 14 12 10 6 3 3 3 3 2 3 3 2 4 8 5 5 1 3 4 4 4 7 7 6 6 7 7 7 6 6 6 6
28 27 26 27 24 19 15 11 5 8 15 15 14 12 7 4 4 4 2 4 2 3 2 1 2 2 3 3 3 3 2 2 2 1 1 1 1 3 4 2 3 3 2 1 1 0 3 5 4 3 7 9 11 7 3 10 15 10 6 4 3 2 4 3 3 4 3 3 5 7 5 4 1 4 6 6 5 10 10 8 9 9 8 7 6 6 6 6
27 26 26 25 23 18 13 8 6 11 13 12 11 6 4 4 2 2 3 4 2 3 3 2 4 3 3 4 4 3 3 3 3 3 4 2 2 1 2 3 2 3 2 1 2 3 1 4 2 4 10 12 11 7 4 5 6 5 5 5 4 2 3 2 2 1 2 4 3 6 5 2 2 5 7 8 7 10 10 9 11 11 10 9 7 7 6 5
27 28 26 23 21 20 18 14 11 10 10 9 7 5 6 4 2 4 3 3 2 4 2 1 4 5 3 3 4 4 3 4 4 2 3 3 2 3 5 4 4 3 2 3 3 4 1 4 2 6 7 7 11 10 4 3 3 4 6 5 4 3 2 1 2 1 1 2 1 3 3 1 3 4 6 11 10 11 11 9 11 11 11 10 8 8 7 6
28 27 26 24 22 21 19 14 11 8 8 6 5 5 5 3 4 4 3 3 3 4 3 0 4 5 3 2 5 3 3 4 5 3 4 2 2 2 5 4 3 2 2 3 2 4 3 3 3 7 7 6 9 13 12 9 7 6 5 5 4 4 4 3 3 2 2 1 2 3 2 2 2 3 7 10 10 10 10 9 9 9 8 9 8 8 8 6
28 26 26 24 22 19 14 12 10 6 4 3 6 4 3 4 4 2 3 4 3 3 4 3 4 4 4 4 4 3 3 3 4 3 4 3 4 4 4 4 4 3 3 3 1 2 6 4 7 5 10 12 9 9 11 10 6 4 3 4 2 4 5 3 2 4 4 2 1 1 1 3 2 2 5 9 9 10 9 8 9 8 7 9 9 8 7 6
29 28 23 18 17 14 8 7 8 7 4 4 5 2 4 4 4 3 3 3 1 2 5 3 2 4 4 4 3 3 3 4 3 1 1 2 4 5 4 4 4 5 4 4 2 1 4 3 5 1 11 15 12 10 10 9 6 3 2 3 4 4 7 5 1 1 5 4 1 1 1 0 2 1 3 8 10 9 9 9 10 10 10 11 9 8 7 7
29 26 18 16 19 13 6 5 10 11 5 6 4 4 4 4 4 4 3 3 2 3 5 5 2 4 4 3 3 3 3 4 3 1 0 2 2 2 2 3 2 5 6 4 2 3 4 1 5 2 8 10 11 13 10 7 6 5 3 5 2 3 4 5 3 2 4 2 2 2 3 4 3 1 4 9 11 10 10 10 11 12 12 11 9 8 8 8
26 22 15 18 16 10 8 7 15 13 4 4 2 4 4 3 4 4 3 3 4 4 3 4 4 5 5 5 4 3 4 4 2 1 2 0 1 2 1 2 3 1 3 4 2 2 4 1 6 2 6 4 5 9 7 5 2 4 4 4 4 2 0 2 3 1 2 2 2 2 3 5 4 4 8 12 13 11 11 11 12 12 11 10 9 8 8 7
19 11 7 11 10 6 13 14 16 8 5 3 2 3 3 4 6 5 3 3 3 2 2 4 3 2 4 5 4 2 5 6 3 2 2 1 1 2 0 1 3 5 2 4 4 1 3 4 3 5 1 5 4 3 4 5 4 2 2 2 3 3 3 3 2 3 4 3 2 1 2 4 5 6 12 15 14 14 13 12 13 13 12 11 9 9 9 8
9 3 4 13 16 6 20 16 9 5 3 4 3 3 3 4 5 6 4 3 3 2 4 4 1 1 3 4 3 2 4 5 4 4 2 2 3 4 2 1 1 3 4 6 5 1 3 4 2 5 5 4 2 2 5 6 3 1 2 2 2 1 2 2 1 2 4 4 3 2 2 5 5 6 12 16 15 15 15 13 12 11 12 11 10 10 9 8
5 2 4 10 15 10 22 11 2 3 2 2 2 2 4 4 5 7 6 5 4 4 6 6 3 3 4 4 3 3 3 2 3 3 1 2 3 2 4 4 3 2 3 6 4 2 2 3 3 2 3 2 4 6 5 7 7 5 4 5 4 3 4 3 0 2 2 4 4 4 2 6 5 5 11 14 13 14 15 14 12 11 13 11 10 10 9 8
2 1 7 6 11 3 13 5 1 3 2 2 3 3 4 4 5 7 6 5 6 6 5 5 4 4 4 4 3 2 3 2 2 3 2 4 5 3 5 5 5 4 4 3 1 2 3 4 4 0 1 3 7 7 3 4 6 5 3 3 4 4 5 5 3 3 1 3 2 3 1 5 5 6 11 12 12 13 14 14 12 11 12 11 9 10 9 8
2 4 14 17 15 4 5 2 2 1 1 3 4 5 5 4 5 5 5 4 6 4 2 2 3 3 3 3 2 1 3 2 2 3 2 3 5 6 5 6 7 5 5 2 2 1 3 4 4 1 4 4 6 5 4 3 5 5 1 0 3 3 3 5 5 3 3 3 2 3 0 5 5 4 9 12 12 13 12 13 14 12 9 10 11 10 8 7
1 4 11 16 12 4 3 3 2 2 3 3 4 5 5 5 5 6 6 5 5 2 1 3 3 3 3 2 2 2 3 3 1 1 2 2 3 5 4 7 7 4 2 3 3 1 1 2 3 3 3 5 6 6 6 6 4 1 3 3 1 4 6 4 2 4 2 3 5 4 3 6 4 2 8 10 12 12 11 12 14 12 10 10 11 9 8 8
3 2 4 11 9 1 3 4 4 3 3 1 3 5 4 4 5 7 8 7 7 3 1 3 4 4 4 2 1 1 2 4 1 2 1 1 2 2 2 6 7 4 2 6 6 4 3 3 4 4 3 2 2 2 3 3 2 2 2 3 1 4 7 4 2 4 2 3 4 5 4 5 3 3 9 11 13 12 11 11 11 11 12 12 10 9 8 9
2 1 3 6 5 0 2 2 4 3 2 1 2 4 5 4 5 6 7 7 7 4 2 3 4 3 2 2 2 1 0 2 2 0 0 1 2 2 3 6 6 6 6 7 6 5 4 2 3 6 6 5 6 6 5 3 1 2 3 2 1 3 6 6 4 2 3 4 2 4 5 4 1 4 9 11 13 13 11 12 11 11 12 12 10 9 9 8
0 2 1 3 4 3 2 2 2 1 3 3 2 3 4 4 5 4 4 5 4 2 1 3 3 4 4 3 2 1 1 1 3 2 1 1 1 2 4 6 6 8 10 6 3 4 5 2 1 5 4 6 7 7 4 2 2 4 4 4 4 3 7 7 3 4 5 6 3 7 5 7 6 7 11 12 12 13 13 14 14 12 12 11 10 10 10 9
1 2 1 2 2 2 2 4 4 4 4 3 3 4 5 6 6 5 4 3 1 3 1 2 4 7 7 6 5 2 2 2 2 2 0 0 1 3 4 3 4 4 6 4 3 4 6 1 2 3 2 5 5 5 4 2 3 5 5 6 6 4 7 6 5 6 8 7 6 7 7 9 8 8 12 14 15 16 15 15 14 13 13 12 12 12 11 10
1 1 3 3 1 2 3 5 6 5 5 5 3 4 5 6 7 6 4 2 2 1 3 2 6 7 7 5 6 3 4 5 3 3 2 1 3 3 2 2 4 5 4 4 3 3 5 1 3 2 2 6 6 6 6 4 4 5 6 8 7 6 7 6 4 6 7 5 7 8 10 9 7 9 13 12 12 13 12 12 13 14 14 14 14 13 11 10
0 1 2 3 3 4 3 4 4 4 4 3 3 5 5 6 8 8 5 4 2 2 1 4 7 8 6 4 6 5 6 8 7 5 4 3 2 2 2 2 2 3 5 4 2 3 5 2 3 4 3 6 7 5 6 6 5 6 7 7 6 6 6 4 4 5 4 2 3 7 9 7 5 5 9 8 9 11 12 13 14 14 14 15 14 13 11 10
2 4 2 1 3 4 2 2 2 3 4 2 3 4 3 6 9 7 4 5 7 5 3 4 8 8 3 1 5 5 5 7 8 9 8 7 4 4 3 3 5 3 3 2 2 3 4 1 1 5 4 5 6 4 6 4 1 2 5 5 5 7 6 4 4 4 5 5 4 6 5 6 4 6 10 10 12 14 15 15 14 12 14 15 15 13 12 11
2 4 2 2 3 3 2 2 2 2 3 2 2 4 4 6 8 4 4 5 4 6 5 3 5 7 3 2 3 5 5 7 8 7 7 7 5 5 5 5 7 7 3 2 2 2 4 4 1 4 3 5 6 5 5 3 4 3 5 4 5 4 4 4 3 2 5 8 7 5 6 6 6 11 12 11 13 14 15 15 14 13 14 14 14 14 13 12
Wind_Direction
10 9 9 10 9 9 10 9 6 2 2 1 356 349 341 334 326 315 306 303 304 303 305 311 318 327 330 334 337 338 337 334 334 327 278 260 251 260 280 279 277 272 250 258 255 266 315 323 337 326 308 306 235 264 326 102 63 63 72 74 76 69 70 98 117 138 153 154 176 158 120 105 108 87 97 67 60 71 67 60 59 57 51 53 69 81 105 127
10 9 9 9 8 9 11 10 7 5 4 2 359 352 345 341 332 322 316 311 311 308 313 321 326 331 332 337 338 337 335 331 329 298 262 251 240 252 267 275 272 248 234 237 247 277 340 322 351 4 339 345 270 265 29 45 64 78 89 70 57 75 79 87 105 122 136 129 113 109 106 96 94 87 84 74 61 63 71 58 55 65 50 44 68 91 103 111
11 9 8 8 8 8 10 10 9 8 6 4 1 355 349 347 340 334 328 320 318 319 325 329 331 334 334 336 336 336 333 331 330 283 281 267 243 251 259 261 249 225 229 248 272 269 257 260 289 348 329 277 295 287 81 40 54 66 85 76 62 101 95 96 103 106 106 100 91 86 84 74 67 66 75 97 75 50 60 57 61 77 68 40 52 81 86 91
11 9 7 8 7 7 9 10 10 10 8 5 3 358 353 351 350 345 338 331 331 332 334 336 336 335 332 333 335 333 333 347 330 282 300 267 227 239 244 244 230 217 248 263 270 274 275 272 259 198 168 245 282 60 69 49 60 63 80 99 115 109 99 99 98 92 93 93 93 93 86 77 64 53 66 114 89 55 43 31 81 118 124 108 58 58 71 78
11 9 7 7 7 6 8 10 10 11 10 7 6 1 356 356 356 349 344 341 341 342 341 340 337 333 330 333 334 328 342 34 297 279 261 174 197 218 225 225 217 232 260 268 279 286 288 278 221 131 132 180 79 68 73 73 94 87 66 94 99 95 98 99 95 89 90 91 90 89 86 92 91 61 48 99 99 106 154 87 109 136 147 135 102 77 72 71
8 7 5 5 6 6 7 8 9 12 12 10 9 4 359 357 355 352 346 344 347 347 342 338 335 332 331 334 334 330 38 86 275 258 183 171 182 195 194 209 223 253 266 286 308 311 309 298 109 102 80 73 78 83 91 87 97 97 68 81 83 86 96 94 93 92 92 90 85 86 91 103 98 73 38 73 95 161 202 155 130 122 133 122 95 85 75 67
5 5 3 3 5 4 5 7 8 11 13 12 11 6 1 357 357 353 345 347 349 344 338 335 333 332 335 337 335 358 112 240 268 224 179 160 162 178 186 228 247 270 282 308 326 344 353 357 86 99 93 81 85 93 102 91 87 99 95 88 89 89 91 90 92 93 93 93 95 102 100 96 93 92 69 66 87 157 163 131 112 99 100 97 84 81 81 79
3 2 0 1 2 3 4 5 6 9 12 13 12 9 4 360 357 351 347 347 343 340 333 332 333 334 339 339 340 15 333 263 261 161 159 148 154 183 222 253 266 279 289 298 284 294 338 337 101 92 82 92 101 107 110 98 82 94 104 100 98 95 95 97 97 97 95 95 101 99 94 90 93 99 91 65 49 125 131 104 90 90 83 82 83 86 86 85
1 359 359 358 359 1 2 4 4 5 9 12 13 11 6 360 353 349 348 342 338 333 329 332 333 337 343 341 44 15 301 212 124 137 144 147 162 211 254 270 287 288 298 303 285 222 196 279 115 100 96 98 103 112 113 101 91 101 108 107 105 102 103 105 101 100 99 98 104 98 95 103 109 102 66 43 7 321 99 95 74 80 71 70 82 83 90 93
358 358 357 355 357 358 359 1 0 2 6 9 12 11 6 359 349 345 342 337 331 326 330 333 334 344 348 356 70 15 269 150 133 141 147 162 183 222 248 269 294 308 324 321 316 281 174 152 129 98 90 92 92 97 94 97 108 109 106 104 106 108 108 107 106 108 105 105 107 99 96 96 90 93 78 46 12 312 325 85 61 76 75 77 85 74 91 94
358 357 355 353 354 355 357 359 357 359 2 5 9 7 2 355 345 339 335 330 325 325 330 330 337 343 345 49 92 282 207 161 150 151 157 173 192 228 248 277 305 321 333 331 351 45 118 129 124 94 76 94 94 88 90 103 111 110 107 101 99 105 108 108 113 118 110 112 115 98 80 62 37 60 117 132 73 284 304 79 55 74 80 79 84 81 93 96
357 355 354 352 351 353 355 356 355 356 358 0 3 2 356 351 342 330 324 323 318 323 328 328 331 327 340 88 177 224 195 177 161 151 166 179 191 229 257 313 319 322 352 358 22 69 92 100 95 89 106 111 100 93 103 110 106 104 103 101 99 96 101 109 117 127 120 140 141 101 66 34 25 69 129 148 189 249 73 71 51 70 84 83 80 76 77 78
356 355 353 350 349 351 353 353 353 353 354 356 356 355 347 342 335 321 316 315 313 323 322 316 311 305 9 359 268 222 181 191 174 160 175 189 229 261 280 300 315 320 76 63 45 72 88 93 91 90 106 102 105 112 112 102 95 97 87 90 92 56 50 98 121 122 111 154 177 89 70 26 18 47 129 168 171 99 70 66 58 70 79 83 75 59 48 45
353 353 352 350 348 349 350 351 351 349 350 350 349 347 338 334 328 313 309 306 311 319 307 302 300 289 66 282 298 169 180 198 193 189 188 191 231 262 283 321 60 96 106 89 75 76 85 92 91 81 63 85 113 115 95 67 63 87 77 46 59 67 20 27 103 114 92 109 95 83 91 82 36 339 303 272 95 84 84 71 62 70 64 59 57 56 50 46
351 351 351 349 347 347 348 349 349 346 346 345 342 338 330 325 316 306 302 303 310 307 297 303 283 248 3 304 307 205 173 189 205 211 209 195 220 260 72 104 94 93 93 87 83 84 85 85 82 76 42 51 95 98 73 46 26 53 80 1 11 82 63 20 37 95 109 128 80 88 99 84 133 242 298 298 88 91 92 68 58 71 68 57 47 51 53 49
348 349 348 348 347 346 346 347 347 344 342 341 337 331 324 321 313 304 300 300 303 294 297 322 255 189 40 302 315 313 170 183 209 215 217 211 224 222 124 119 100 93 93 90 83 81 80 74 67 81 73 55 83 91 63 44 15 12 83 134 50 72 72 34 22 31 86 76 41 71 118 131 143 219 267 255 109 98 94 81 74 79 77 72 58 49 50 44
347 347 346 347 346 344 345 346 346 343 340 339 337 331 325 322 310 300 301 306 310 305 299 11 235 153 297 295 315 292 196 202 213 210 213 222 231 184 129 120 99 99 91 78 69 64 63 57 66 69 53 62 82 88 71 52 14 356 58 110 104 85 86 77 31 13 46 73 58 66 96 98 102 178 225 180 126 108 104 105 107 97 88 83 75 62 57 56
347 345 345 345 344 344 344 344 347 345 339 339 342 338 335 330 312 296 306 4 28 26 53 228 18 55 311 283 270 256 215 215 217 216 214 218 228 191 136 127 112 94 63 49 44 41 42 28 61 65 23 37 50 80 103 174 168 137 108 102 92 84 83 85 93 341 49 77 79 78 82 89 94 65 280 185 130 107 104 112 112 103 97 85 73 65 62 65
348 346 345 344 343 342 342 344 348 346 341 342 345 347 352 354 346 337 56 86 51 9 339 254 123 104 239 258 250 268 256 221 215 224 223 220 220 191 137 120 107 83 58 40 9 23 76 33 44 74 56 68 101 118 137 172 147 132 125 110 104 92 91 100 114 213 87 82 78 87 93 103 112 130 267 166 109 100 103 105 104 102 102 95 79 69 70 71
351 348 345 343 342 341 341 345 347 348 348 349 350 356 9 7 9 7 345 344 185 217 236 217 200 244 271 271 231 232 247 229 214 213 210 192 155 127 78 53 49 42 67 112 45 360 90 69 71 123 130 136 138 127 118 117 115 113 106 101 106 104 111 125 123 150 125 91 72 89 97 91 99 150 173 114 93 95 102 98 101 103 103 105 93 78 69 79
351 349 347 343 341 340 341 344 346 350 356 357 359 7 24 356 353 325 325 313 287 260 259 257 248 257 259 273 252 204 170 217 221 110 125 127 110 93 16 20 54 22 297 131 87 3 61 91 159 166 150 143 132 117 105 100 97 98 103 104 103 108 112 110 115 128 98 85 79 83 84 73 62 12 72 108 100 105 117 107 111 115 112 110 95 82 63 62
352 350 347 343 341 339 340 344 345 351 1 2 8 21 337 348 357 336 315 304 305 303 299 293 293 279 269 275 255 207 127 157 239 299 152 124 86 115 74 61 99 165 264 88 67 24 42 115 189 172 141 128 115 106 100 98 99 94 99 104 103 122 108 70 85 101 80 79 90 82 80 68 54 14 331 94 117 133 136 118 123 130 122 111 102 89 72 58
351 350 348 344 340 338 339 343 345 359 4 357 6 16 350 347 357 356 2 210 297 294 294 295 300 291 279 268 239 190 125 168 199 261 176 130 117 197 122 83 146 164 318 98 110 89 71 200 189 158 128 113 97 89 90 87 87 83 92 114 130 153 124 92 108 113 90 98 118 103 87 55 33 44 350 347 117 115 99 98 106 119 124 128 131 117 94 79
349 349 348 345 339 336 338 341 352 4 356 349 356 1 354 348 353 359 13 144 297 281 270 266 266 270 256 241 217 143 121 188 161 205 184 137 129 181 123 161 148 127 238 158 134 127 182 201 159 135 119 114 107 97 97 93 76 64 75 126 151 147 120 121 130 108 68 82 131 110 73 9 356 41 8 351 64 92 87 92 85 84 107 114 110 96 88 96
346 347 347 346 341 334 337 345 3 357 350 357 0 350 355 353 348 352 8 94 313 289 294 284 262 260 261 234 205 130 117 244 151 180 191 151 139 125 163 183 128 192 225 163 132 126 214 186 146 129 117 116 114 120 132 126 101 78 99 180 161 139 126 118 119 102 69 46 208 121 72 324 319 16 298 320 68 98 87 99 101 91 94 93 90 84 80 91
343 345 346 347 341 335 342 359 351 350 349 9 358 348 351 350 343 344 12 75 329 282 308 317 341 295 287 220 169 97 73 304 194 172 186 162 154 150 173 200 117 198 210 155 133 115 196 183 146 132 130 118 107 129 157 126 101 82 156 139 101 126 138 137 134 114 114 209 228 138 109 234 300 295 249 261 117 129 113 113 122 112 103 101 97 98 100 99
339 341 343 345 344 342 348 344 337 348 4 344 347 349 345 340 338 336 39 56 312 260 232 286 356 360 288 181 95 99 128 267 201 157 185 167 154 117 159 187 169 204 173 110 100 198 183 173 135 127 129 124 111 139 177 126 111 125 164 122 106 139 154 152 149 133 161 180 357 52 113 118 283 257 221 159 134 146 143 142 144 138 132 122 112 114 124 131
335 338 339 341 343 342 341 336 333 342 355 339 345 349 338 332 334 344 83 69 273 264 247 246 286 311 280 3 56 114 202 220 128 233 196 167 157 68 174 203 186 210 187 122 150 242 183 167 170 145 132 151 161 160 161 122 105 144 152 137 143 179 174 157 143 115 115 86 21 309 108 96 282 260 209 153 151 167 174 176 170 162 158 139 134 142 150 146
332 334 336 336 338 335 330 326 319 325 348 348 349 343 329 326 339 55 83 86 251 279 294 208 344 282 280 15 20 286 277 101 146 251 192 167 187 146 187 210 178 187 207 154 169 215 192 178 179 151 137 172 165 157 154 126 115 148 146 136 132 149 142 126 119 95 53 65 204 226 144 101 264 252 194 185 184 182 184 182 173 166 162 154 153 162 159 137
328 330 332 332 332 328 321 313 303 337 352 349 342 330 324 331 34 72 38 249 247 270 258 45 360 250 95 39 324 288 286 274 230 290 66 180 231 47 242 227 125 131 190 181 173 190 169 146 160 144 147 163 142 148 155 135 137 143 136 127 95 75 54 67 76 76 71 358 235 215 182 124 194 253 203 206 197 173 169 169 168 167 164 164 166 165 152 133
324 327 328 326 324 319 314 309 319 353 346 343 338 331 340 11 68 89 224 237 262 275 259 4 278 220 128 155 267 287 266 277 273 211 197 237 27 21 346 345 28 44 75 104 118 129 84 117 161 144 128 127 118 118 109 130 139 133 122 129 100 31 15 34 359 39 96 273 248 203 186 114 119 244 211 215 195 162 165 168 166 169 168 171 172 161 148 137
322 323 323 320 315 304 283 270 308 333 336 344 348 359 55 41 38 154 241 275 301 251 223 197 235 235 154 170 230 248 218 249 260 195 178 182 153 186 227 206 182 50 56 158 89 53 124 174 186 95 122 131 115 92 52 112 126 102 113 120 97 54 13 36 317 6 162 261 254 174 164 122 243 237 198 197 183 165 172 171 167 170 169 170 169 157 148 143
320 321 320 315 307 293 276 274 292 312 329 350 10 44 77 78 235 225 244 282 248 238 242 139 224 223 139 136 238 236 211 238 259 231 182 162 151 220 243 219 162 106 159 188 96 78 299 302 3 101 134 149 126 121 137 168 163 145 147 144 122 115 91 163 247 288 191 262 324 123 130 143 283 276 188 179 172 169 173 171 171 172 166 165 163 153 147 145
319 320 318 311 300 287 275 272 278 292 319 354 52 62 83 132 238 242 240 251 244 265 294 247 230 222 159 177 235 216 184 240 250 206 182 141 112 237 270 253 196 159 129 114 96 139 149 301 250 163 168 181 151 152 166 167 167 181 170 146 143 147 148 181 200 185 172 208 338 15 74 158 222 252 189 166 159 164 167 170 172 167 160 155 146 143 144 146
320 321 318 308 295 283 269 261 264 266 289 34 67 76 142 195 247 244 237 241 223 267 275 223 204 213 218 235 247 213 169 237 262 196 178 169 166 198 235 232 202 168 100 88 263 163 136 199 241 197 167 172 170 166 158 141 149 209 174 115 171 184 145 128 169 169 145 126 316 321 204 201 201 215 168 146 150 162 162 162 157 148 144 138 137 145 148 147
323 325 322 305 287 278 259 245 231 201 170 86 76 140 191 211 217 190 227 240 180 321 320 305 193 190 235 259 275 263 214 231 255 188 218 230 198 198 211 226 193 155 132 129 190 180 117 204 270 112 156 173 173 165 159 149 150 179 171 186 219 171 124 108 104 48 80 101 233 231 175 203 42 56 156 149 156 163 159 153 146 144 143 138 144 153 151 151
328 329 320 292 282 265 237 214 175 162 131 87 115 201 212 219 210 199 251 290 343 360 348 316 231 180 217 240 252 255 218 240 256 134 284 299 256 238 250 267 227 176 171 139 172 201 131 216 289 128 160 191 175 157 168 180 147 126 190 213 175 85 86 98 103 18 52 114 252 248 170 167 143 177 182 164 166 168 160 151 145 147 147 146 154 156 154 157
328 326 304 291 285 234 211 189 157 144 91 82 149 223 211 228 232 216 263 318 347 9 358 280 225 180 189 206 240 237 169 209 266 145 160 359 270 258 301 307 328 279 183 118 87 224 122 105 287 248 157 165 136 140 174 229 179 132 182 176 114 96 336 90 114 140 130 153 261 256 204 196 190 187 176 174 177 172 160 152 150 156 155 153 156 153 150 148
328 326 298 324 341 196 189 170 152 123 55 118 178 242 221 254 260 246 268 318 323 319 281 246 216 179 190 195 215 202 177 199 208 158 162 129 248 272 321 266 342 357 4 100 112 204 98 110 270 292 113 106 79 109 181 232 276 6 69 119 122 141 159 152 150 149 142 155 208 196 207 234 226 192 176 178 180 170 163 161 160 162 161 157 156 152 150 146
338 331 276 353 7 179 174 154 137 90 68 170 191 237 246 274 269 259 253 235 235 234 242 253 238 180 230 224 218 189 190 198 174 161 171 155 208 251 251 186 67 10 15 59 91 93 48 97 195 303 350 75 98 214 181 186 212 21 92 180 215 104 118 148 142 119 125 141 167 151 209 252 243 190 177 178 177 171 167 165 163 163 160 158 156 153 150 148
357 334 260 14 27 150 160 138 112 133 130 215 204 230 269 280 276 284 274 243 236 223 228 243 230 204 226 234 239 215 178 161 165 158 155 175 183 227 234 199 160 135 56 48 57 107 89 108 148 309 5 83 222 233 193 176 178 169 172 192 191 147 118 117 326 291 114 127 164 157 202 263 251 176 176 177 175 173 167 162 160 161 159 157 156 152 150 153
50 298 256 324 358 152 155 136 271 166 143 217 209 233 272 274 269 283 288 273 263 239 222 227 208 210 229 213 214 208 133 122 177 164 170 194 181 205 228 183 130 111 105 78 4 154 131 104 94 55 222 205 244 256 235 191 163 154 182 186 160 133 119 131 189 246 119 101 138 121 131 276 266 176 170 174 174 171 166 161 156 158 159 153 150 150 149 151
133 277 283 296 318 342 133 159 265 226 211 226 233 244 257 270 273 283 290 280 273 262 219 234 202 186 228 211 170 142 106 110 185 183 185 196 192 215 213 134 103 84 90 90 302 6 72 81 82 328 296 295 297 304 319 6 79 98 315 297 146 154 138 146 172 172 126 127 129 86 229 269 276 197 167 168 170 165 162 159 152 152 155 147 147 150 147 136
228 268 288 297 311 11 115 192 198 231 249 254 265 255 254 265 259 267 277 267 261 256 149 259 242 180 202 203 141 144 132 120 306 261 180 184 228 239 196 132 121 108 110 162 187 96 62 98 92 61 1 343 338 344 342 348 33 91 288 306 185 137 105 106 121 90 87 187 154 127 220 256 275 200 159 158 160 158 157 155 149 148 149 148 148 145 136 126
314 262 273 292 299 72 156 186 154 183 236 258 282 267 260 271 255 242 252 263 264 248 185 266 262 212 199 164 95 49 128 135 187 276 194 196 295 309 135 134 125 113 163 169 146 104 115 143 112 110 128 174 217 257 271 280 324 316 308 322 322 114 115 132 116 82 99 200 147 141 210 255 297 133 148 154 154 151 149 145 143 146 148 148 147 139 134 132
356 302 292 310 313 113 193 203 135 150 217 217 309 274 232 244 267 236 229 254 266 251 239 281 282 268 226 139 114 294 271 117 119 120 138 177 275 314 117 126 114 110 126 130 112 88 90 91 105 135 160 177 189 219 225 176 137 270 273 295 287 125 118 113 100 118 178 159 169 219 193 171 160 139 148 156 153 147 145 142 142 147 147 145 141 138 136 134
86 258 287 348 325 317 324 334 73 135 224 196 221 272 252 257 287 268 225 232 234 210 275 294 267 250 228 160 133 230 244 96 106 132 166 183 234 346 85 108 111 119 116 97 68 93 87 32 96 141 179 204 198 218 229 162 188 230 240 263 259 170 120 113 141 201 157 122 228 253 181 156 186 173 157 158 153 149 152 152 152 152 150 144 138 136 134 133
207 249 311 360 308 290 346 330 325 315 282 246 227 258 276 281 285 276 256 259 224 152 152 306 273 245 222 175 152 203 212 144 136 174 188 7 19 25 35 49 50 83 97 65 11 95 104 167 213 150 281 272 236 244 256 226 228 236 235 247 252 203 155 155 191 186 145 139 217 227 175 176 193 176 169 168 162 159 158 156 152 148 145 142 139 139 140 141
240 266 317 350 311 266 302 299 297 298 275 254 240 235 245 260 266 260 250 285 332 214 180 254 282 268 248 192 143 156 193 165 169 230 210 91 69 69 46 22 13 9 50 70 21 70 103 222 244 118 353 300 282 274 280 277 267 270 265 255 244 210 181 162 163 171 153 163 200 181 174 198 202 177 177 172 158 151 145 143 147 148 147 146 145 146 148 150
351 323 314 345 309 275 291 286 285 302 285 248 237 241 232 238 254 261 241 190 229 285 205 228 263 273 268 219 151 165 209 180 166 192 180 124 94 125 146 166 140 16 32 74 36 38 88 212 252 90 54 302 293 290 288 283 260 259 279 276 238 195 180 145 135 154 139 139 186 156 168 226 246 166 154 142 135 136 138 148 155 154 153 150 150 153 153 153
266 300 282 299 290 273 279 285 296 321 306 251 226 245 236 231 239 250 262 219 197 193 186 227 259 275 310 75 147 176 223 201 180 182 169 157 178 179 168 179 154 114 39 68 76 46 81 156 255 70 56 288 289 305 296 303 320 289 304 289 219 180 179 181 163 163 155 143 121 117 158 234 239 136 132 141 148 147 149 157 158 158 159 156 155 159 157 156
295 305 275 218 267 282 297 302 305 294 274 260 283 295 288 266 253 238 272 281 214 189 203 209 249 272 318 12 217 205 203 206 201 190 169 158 162 157 152 169 156 139 140 125 85 88 111 116 136 90 85 274 288 312 307 6 44 315 279 242 208 185 164 153 133 163 162 142 135 157 207 221 171 141 143 153 158 157 160 165 163 163 164 160 160 162 159 159
Height
824 822 819 816 814 811 808 805 803 800 798 796 794 793 792 792 791 791 791 791 791 791 791 791 791 791 790 790 789 787 786 784 783 783 782 779 779 778 778 777 776 776 777 777 777 778 779 780 782 780 781 783 784 782 780 781 783 790 804 817 825 828 827 823 824 827 828 832 831 829 828 832 837 834 833 834 835 837 838 838 838 837 836 836 838 839 837 837
824 822 819 817 814 811 808 805 803 800 798 796 794 793 792 792 791 791 791 791 791 791 791 791 791 791 790 789 788 787 785 783 782 781 779 778 778 778 777 776 776 776 776 778 779 780 781 782 781 780 781 785 785 782 784 785 786 797 809 821 827 825 822 818 819 822 824 829 828 828 829 830 835 834 833 839 843 840 842 843 841 841 839 838 839 840 838 837
823 821 819 816 814 811 809 806 803 800 798 796 794 793 792 792 791 791 791 791 791 791 791 791 791 790 790 789 788 787 785 782 783 780 777 777 777 776 775 775 775 776 778 779 779 779 780 780 780 782 784 788 787 784 789 789 790 800 810 825 827 819 819 817 817 820 822 825 828 831 831 833 835 834 835 841 845 844 845 846 844 845 843 841 840 840 839 837
823 821 819 816 814 811 809 806 803 800 798 796 794 793 793 792 791 791 791 791 791 792 792 791 791 790 790 788 788 787 783 785 785 778 776 776 776 775 775 775 775 777 778 778 778 777 777 778 779 782 787 792 789 786 792 792 794 803 811 822 822 815 820 820 817 820 821 824 829 833 835 838 838 835 837 840 845 849 847 845 844 845 844 842 841 840 839 839
823 821 818 816 813 811 808 806 803 801 798 796 795 794 793 792 792 791 792 792 792 792 792 792 791 790 789 788 788 785 785 793 787 776 776 775 774 775 774 775 776 777 777 777 777 777 777 775 777 783 789 793 792 792 798 795 794 807 814 816 816 815 821 821 818 821 822 824 829 833 837 840 839 838 840 839 845 849 846 844 843 842 842 841 841 841 841 840
823 821 818 816 813 811 808 806 803 801 799 797 795 794 793 793 792 792 792 792 792 792 792 791 790 790 789 787 787 784 789 796 783 775 778 775 775 775 775 776 776 776 776 777 777 776 777 776 779 786 791 794 796 798 803 798 795 811 819 815 815 816 820 821 820 822 824 826 831 835 837 838 840 844 844 842 844 845 842 842 841 841 841 841 841 842 842 841
823 821 818 816 813 811 808 806 804 801 799 797 795 794 793 793 792 792 792 792 792 792 792 791 790 789 788 787 786 785 789 789 777 776 778 774 776 775 775 776 775 777 776 778 777 776 779 780 783 785 791 797 798 800 804 802 800 812 822 819 818 818 820 822 822 824 826 829 833 834 837 840 843 847 847 846 845 843 842 841 841 842 841 841 842 842 842 842
823 821 818 815 812 810 808 805 803 801 799 797 796 794 794 793 792 792 792 793 792 792 792 791 790 789 788 787 786 788 788 782 774 776 777 775 776 774 775 775 775 777 776 777 777 777 780 783 784 784 792 798 797 802 803 805 810 814 820 820 819 820 822 822 823 827 828 831 833 834 840 843 843 846 849 850 847 844 842 842 842 842 842 843 843 842 842 842
822 820 817 815 812 809 807 805 803 801 799 797 796 795 794 793 792 792 792 793 792 792 791 790 790 789 789 787 787 791 786 778 775 777 777 777 776 775 775 774 775 776 775 776 774 776 781 783 783 782 791 796 795 802 801 807 818 816 817 819 820 823 823 823 826 828 830 833 834 839 845 846 843 845 852 853 850 848 844 842 844 843 844 844 844 844 843 843
822 819 817 815 811 809 806 804 802 800 798 797 795 794 794 794 793 792 792 792 792 792 791 791 790 788 789 787 790 795 783 775 777 777 777 777 776 775 774 774 775 776 776 775 772 773 777 779 779 777 786 793 797 802 802 808 816 813 815 819 820 823 823 823 827 828 831 835 836 841 848 847 842 846 857 856 851 851 846 844 844 844 846 846 845 845 845 845
821 818 816 814 811 809 806 804 802 799 798 796 794 794 794 793 793 792 792 792 792 791 791 790 789 789 788 787 793 793 780 776 778 776 777 777 776 775 774 774 775 777 778 775 773 772 773 775 774 777 789 795 799 805 805 806 810 812 815 821 823 824 826 826 828 830 831 837 837 838 846 847 845 851 859 855 852 853 848 846 846 846 847 847 847 846 846 846
820 818 815 813 811 808 805 803 801 799 797 795 794 794 793 793 793 792 792 791 791 791 791 790 789 788 787 788 791 785 776 777 778 776 777 776 776 775 774 776 777 779 779 777 776 773 773 773 772 783 793 795 803 811 810 806 808 814 816 825 829 827 830 830 829 830 831 837 833 832 849 857 855 858 858 854 854 853 848 848 848 848 848 848 848 848 847 847
820 817 814 812 810 807 805 802 800 798 796 794 794 793 793 793 792 792 791 791 790 790 790 789 788 787 788 789 783 776 776 778 777 776 777 775 775 774 775 778 778 779 780 778 779 776 775 774 775 785 788 793 805 808 807 806 810 818 820 827 833 834 837 831 830 832 832 837 830 831 860 871 864 862 859 854 853 851 850 850 850 850 850 850 850 850 850 849
819 817 814 811 809 807 804 802 800 797 795 794 793 792 792 791 791 791 790 790 789 790 789 788 788 787 789 786 777 775 776 777 778 777 775 776 775 775 776 779 778 778 779 778 779 778 777 775 776 784 788 795 802 802 807 813 817 822 826 832 838 845 845 832 829 834 836 839 830 835 866 875 865 863 858 853 852 851 853 853 852 852 852 853 853 853 853 852
819 816 813 811 809 806 804 802 799 797 795 793 792 791 790 790 790 788 788 788 788 789 788 787 788 788 790 785 775 775 777 776 778 776 775 776 775 776 778 779 779 778 778 778 779 779 778 777 781 792 797 796 799 808 817 822 825 829 836 844 846 848 848 836 831 833 838 840 831 837 866 874 866 862 857 853 853 853 855 856 855 855 855 855 855 854 855 854
818 816 813 811 808 806 804 801 799 797 795 793 791 790 789 789 788 787 787 786 787 787 786 788 787 788 793 787 776 776 776 775 775 774 775 775 775 777 778 778 778 779 779 778 779 779 779 782 788 797 801 802 807 816 824 832 836 837 842 850 851 850 851 846 839 834 834 838 836 841 862 872 866 862 858 855 855 854 856 859 858 857 857 857 857 856 856 855
818 816 813 810 808 806 804 801 799 796 794 793 790 788 787 787 786 785 785 785 786 785 786 788 786 789 790 782 778 778 774 773 774 774 775 775 775 777 778 778 779 779 778 778 779 780 782 788 796 801 805 813 816 817 832 847 848 845 845 848 850 851 853 853 848 841 836 841 847 850 859 867 865 864 860 855 854 855 856 859 859 858 858 857 857 857 857 857
818 815 813 810 808 806 803 802 799 796 794 792 790 789 786 785 784 783 784 784 784 784 787 788 788 796 795 782 780 779 773 772 773 773 775 774 775 777 778 778 779 779 780 783 785 786 791 796 802 809 813 818 818 818 836 847 844 845 848 849 853 852 852 855 853 847 843 847 854 857 862 867 866 866 863 856 854 856 856 858 859 858 859 859 858 858 858 857
817 814 812 810 808 805 804 802 800 797 794 792 791 788 785 783 782 782 782 783 786 789 792 791 790 798 797 784 777 775 771 771 773 773 773 773 775 777 778 778 779 782 788 795 796 795 797 803 810 818 823 824 821 820 828 834 834 840 844 847 854 856 855 855 852 847 845 852 859 861 866 868 866 867 865 859 855 856 858 858 860 860 860 860 859 859 859 858
816 814 811 809 807 805 803 802 800 798 795 793 791 787 788 790 792 791 785 783 786 788 788 788 787 788 787 780 774 772 772 772 773 772 772 773 774 777 779 780 783 787 794 800 803 798 799 813 820 822 826 824 821 820 823 828 831 836 842 847 851 855 857 853 850 847 842 854 864 862 865 867 866 865 862 858 857 857 859 860 862 862 862 862 861 861 860 860
816 814 811 809 807 805 804 802 801 799 797 796 793 793 797 800 805 803 793 786 782 780 782 781 780 782 780 777 773 771 774 775 773 772 774 772 772 781 786 786 793 799 799 800 803 800 803 819 823 817 819 818 818 821 823 828 831 836 843 850 853 855 856 850 848 847 842 854 866 862 865 869 867 865 861 857 859 860 859 861 863 863 863 863 862 863 862 860
816 813 810 809 806 804 803 802 801 799 798 797 795 797 799 800 802 798 795 796 786 776 778 776 776 779 773 772 771 769 774 781 779 775 773 772 774 785 790 791 800 804 800 801 806 810 815 822 817 812 814 816 820 823 824 829 833 838 844 852 857 855 855 853 848 847 846 856 867 865 868 871 868 866 863 859 859 860 859 859 862 862 863 864 863 863 862 861
817 813 811 808 805 804 802 802 801 799 799 798 798 799 799 798 797 792 792 800 794 780 778 778 778 779 774 771 767 767 776 783 785 780 771 773 779 784 789 794 800 802 803 805 809 817 823 819 811 810 812 817 825 825 825 831 836 841 846 854 860 855 856 862 857 851 850 855 865 866 869 872 869 867 865 861 859 859 859 859 860 861 862 863 863 863 862 863
817 813 811 808 805 803 802 801 800 800 799 798 799 801 800 798 796 793 793 799 800 785 776 776 775 775 774 769 764 769 778 778 781 781 771 773 781 783 788 793 799 804 804 804 806 813 818 812 806 810 814 819 827 828 828 835 842 847 849 853 857 853 854 859 858 855 856 858 860 862 872 876 872 872 870 863 860 860 861 861 862 862 862 862 862 862 863 863
817 815 811 808 806 802 801 801 799 801 799 798 799 798 797 797 794 794 796 805 807 791 778 775 774 772 768 766 766 768 775 776 775 775 769 770 779 784 788 788 795 805 804 803 806 810 812 807 804 812 818 820 827 832 831 834 843 850 851 849 849 852 853 856 857 859 870 875 862 859 878 886 876 874 873 867 864 865 864 864 865 864 863 863 863 863 863 863
818 816 812 810 807 802 800 800 800 801 799 799 799 796 796 795 795 794 799 816 818 797 786 783 779 775 768 768 767 767 782 783 769 768 769 769 771 778 790 791 791 799 800 801 805 807 807 803 804 812 819 823 829 833 830 830 842 852 849 843 843 848 852 855 857 861 875 878 861 856 875 888 882 875 872 868 869 869 867 866 866 865 864 864 864 864 864 864
818 816 813 811 808 804 803 802 803 802 801 802 799 797 796 794 795 792 803 834 830 798 789 788 781 776 770 769 766 775 796 788 770 770 768 770 770 772 788 795 794 795 792 799 811 809 803 804 809 812 819 827 832 835 830 827 839 850 845 839 841 846 851 853 855 860 866 864 860 858 865 882 887 877 869 868 871 873 870 869 867 865 865 865 864 864 864 864
819 816 814 812 810 808 806 805 805 802 803 803 798 797 795 793 795 793 815 850 830 791 786 785 775 772 768 768 768 778 787 780 782 781 765 767 773 774 789 794 794 796 789 799 816 808 799 805 810 811 820 830 828 828 826 825 837 845 840 837 838 843 848 850 855 860 860 862 872 868 862 880 889 876 868 870 873 876 873 870 869 866 865 865 865 864 864 864
819 816 814 812 810 809 807 807 805 803 803 800 797 798 794 793 795 800 829 846 814 786 785 781 776 774 772 773 775 778 778 777 785 780 764 769 771 772 786 786 786 794 790 794 806 803 797 797 799 805 816 822 820 820 820 822 833 837 835 839 841 844 847 849 856 860 860 867 878 872 863 878 889 877 872 874 875 876 873 869 867 865 865 864 864 864 864 864
818 816 815 812 810 808 807 806 803 803 802 799 799 796 793 795 802 823 848 837 806 792 786 782 783 781 779 784 785 782 782 782 779 774 772 774 771 770 777 775 779 791 794 793 797 797 793 790 793 800 807 810 812 817 817 816 823 828 835 842 846 849 849 852 858 859 866 874 871 866 863 870 882 878 872 871 867 866 868 868 866 864 864 864 864 864 863 864
817 815 814 811 809 808 807 804 801 802 802 799 799 794 795 803 815 842 849 818 802 799 787 788 789 783 784 791 792 787 785 784 778 779 783 780 779 781 782 784 786 794 802 803 801 800 797 798 799 797 799 805 812 819 819 816 818 825 835 842 849 856 856 859 864 863 875 877 861 858 861 865 876 873 864 861 857 857 862 863 864 864 864 864 863 863 863 863
816 814 813 810 808 807 806 803 801 802 802 799 798 795 804 819 830 841 831 807 807 805 791 793 791 785 788 790 792 789 787 787 781 781 786 786 789 789 790 794 793 802 815 813 809 809 806 802 800 798 799 803 812 826 830 826 824 830 839 848 859 870 871 872 875 872 876 872 855 853 860 864 867 858 852 855 853 854 856 855 858 859 860 862 862 863 863 863
814 811 810 808 806 804 802 801 801 802 801 799 799 800 814 836 840 830 819 811 810 799 789 792 788 785 790 792 794 789 788 790 784 783 785 786 793 791 789 789 788 799 811 810 812 817 817 809 802 807 809 802 805 826 839 837 833 836 842 848 857 869 879 883 882 879 877 870 856 851 856 865 865 852 846 849 848 849 850 851 853 854 856 859 859 861 862 863
812 809 807 804 803 801 799 800 801 801 801 799 802 809 825 843 835 819 816 811 802 793 790 791 788 788 791 793 793 787 790 792 783 785 788 788 797 798 792 788 786 791 797 805 812 816 828 828 811 807 811 804 801 810 819 823 829 832 831 836 842 848 861 871 873 872 874 872 863 856 860 868 866 852 842 842 843 845 847 849 850 852 854 856 858 860 862 863
809 807 804 800 799 797 796 799 799 800 802 799 806 819 831 837 827 817 813 803 796 795 792 789 790 795 796 793 789 784 788 792 785 786 791 792 797 798 793 788 786 787 793 807 813 810 823 825 801 792 797 799 802 801 800 813 831 831 823 831 835 828 836 855 864 862 865 871 869 863 863 860 852 845 839 840 844 845 846 848 851 854 855 856 859 861 862 863
807 804 801 798 796 795 795 797 797 799 800 801 813 825 825 821 815 811 804 795 795 796 796 796 794 800 803 796 792 787 784 787 787 789 792 792 792 791 789 784 781 783 787 799 810 809 817 815 794 790 796 794 796 798 797 808 823 828 827 829 823 813 823 847 863 862 861 870 871 866 865 858 852 851 845 843 846 846 847 849 851 854 855 857 860 861 861 862
806 802 799 795 792 793 794 795 796 798 799 804 816 822 817 809 803 800 795 791 794 793 800 808 801 799 804 800 796 791 787 790 789 791 796 796 792 789 786 782 776 777 778 786 800 802 808 812 796 791 800 794 786 791 796 795 803 819 828 820 811 815 821 834 856 866 867 875 873 866 866 864 864 862 852 848 851 849 848 850 852 855 856 858 859 859 860 860
806 803 798 791 789 791 793 794 795 798 801 809 818 818 812 805 796 793 791 790 793 795 804 812 800 793 798 800 798 791 790 796 793 792 797 798 794 786 784 783 775 774 774 777 790 794 798 811 803 790 797 795 786 796 807 800 794 804 810 803 809 828 834 835 851 862 867 877 876 867 867 865 861 858 852 851 851 848 849 851 853 856 856 857 858 858 859 860
809 806 798 789 788 789 792 794 795 798 804 814 822 817 807 801 793 788 789 791 794 799 805 804 795 791 794 794 794 791 790 793 793 794 797 798 797 786 781 783 778 777 775 774 786 792 794 811 813 795 791 795 796 805 816 811 801 798 801 802 806 818 828 832 840 845 853 869 876 873 873 864 850 844 844 846 845 844 847 850 851 853 854 854 855 856 858 859
811 810 801 790 789 790 791 794 797 802 810 815 817 812 803 799 792 785 786 789 792 795 798 796 792 794 792 787 789 789 788 789 789 793 795 794 795 788 780 780 779 780 778 775 784 791 794 808 816 803 794 800 807 808 808 809 808 806 809 812 811 812 819 825 832 836 841 857 870 874 874 857 834 829 834 836 837 837 841 845 848 850 851 851 853 854 856 858
813 814 803 791 791 792 792 798 802 806 811 812 811 808 802 798 792 786 784 785 787 786 787 790 790 791 790 787 787 785 786 789 788 790 792 791 792 790 779 774 777 780 780 782 786 791 796 804 812 812 807 808 808 800 795 797 801 803 806 808 810 813 820 830 841 839 835 844 856 861 862 844 823 820 825 828 831 832 835 840 844 847 849 850 852 853 855 856
815 814 801 791 795 795 795 803 805 804 808 809 806 803 799 795 792 789 784 783 785 781 780 783 785 787 787 786 785 783 783 787 789 789 789 787 788 786 776 770 773 775 780 789 790 787 791 800 810 816 813 808 802 794 793 792 790 795 799 800 806 811 815 827 838 837 835 842 846 850 853 837 817 815 818 822 826 828 831 835 841 846 847 849 852 853 855 856
816 811 796 790 794 794 799 808 808 805 805 803 799 797 796 794 792 790 786 785 785 781 780 781 780 782 783 781 782 783 783 786 789 786 785 784 781 777 771 769 771 775 780 790 792 786 790 803 813 817 813 803 795 791 790 788 789 797 799 798 803 806 806 812 820 825 834 842 842 850 855 837 817 814 816 818 823 825 829 833 837 844 847 849 852 853 855 857
816 812 798 791 792 793 802 810 809 808 805 801 799 797 794 793 791 790 789 787 783 780 781 781 778 778 778 776 778 780 783 788 789 784 783 784 778 770 768 767 770 776 780 786 788 787 796 810 816 822 828 822 814 808 803 796 796 803 804 800 800 800 803 810 814 819 832 838 837 845 850 834 818 816 817 819 823 827 830 832 835 842 847 849 851 853 856 858
816 812 803 794 791 793 800 802 802 805 805 802 803 800 797 793 788 786 786 784 779 777 780 779 775 773 773 774 777 778 779 784 787 784 782 783 776 768 768 768 769 774 777 779 779 783 797 810 812 822 837 841 837 830 820 810 806 806 805 801 799 800 802 808 815 822 831 837 835 835 837 829 821 820 820 821 825 829 833 835 837 841 844 847 850 853 857 858
817 814 807 800 794 793 796 794 796 801 803 805 806 800 798 796 787 779 780 781 777 774 776 777 773 773 774 775 780 781 779 779 782 783 783 782 778 771 770 769 770 773 776 776 777 783 798 808 808 812 821 825 823 818 811 809 810 809 806 801 801 802 801 806 818 823 825 833 835 827 824 827 828 826 825 824 826 830 834 838 840 842 844 846 849 853 856 857
819 816 811 809 805 799 797 795 797 800 800 803 805 798 795 796 791 782 778 778 776 774 776 777 775 777 778 777 782 784 781 779 780 781 783 781 777 775 772 771 773 774 774 777 780 786 799 810 810 808 808 808 808 805 803 806 808 807 805 803 801 801 800 804 813 816 818 830 834 824 820 826 828 826 826 826 827 830 834 836 838 841 844 846 850 853 855 858
818 814 810 811 812 809 805 803 802 802 801 801 800 797 796 797 795 790 781 775 774 774 778 780 778 777 776 774 780 785 783 784 784 782 782 781 780 781 779 777 778 775 775 780 782 786 799 811 810 808 807 805 804 802 801 803 805 803 803 803 800 800 801 800 806 811 814 820 821 818 820 822 822 823 823 821 822 826 829 832 835 839 843 846 850 853 855 858
816 815 810 810 812 811 809 806 804 803 802 800 799 796 796 797 795 789 781 777 777 775 777 783 781 776 774 771 776 784 785 786 789 785 781 781 783 786 787 787 784 779 779 784 786 788 799 808 807 806 808 806 802 802 801 802 804 803 801 800 798 800 799 797 804 810 808 807 807 810 818 818 814 816 817 816 818 822 827 832 835 838 843 846 849 852 854 857
816 817 815 814 814 810 808 805 804 803 801 799 799 794 791 793 791 786 779 777 781 778 776 781 779 774 773 772 774 780 780 778 781 781 780 781 784 786 789 790 787 784 784 787 790 791 797 808 809 806 811 811 803 800 801 802 806 805 802 799 798 800 801 800 805 808 806 808 809 812 820 819 811 811 815 817 821 824 829 834 836 838 841 844 848 851 853 855
817 816 816 818 817 810 807 805 803 806 804 798 795 791 787 787 784 781 777 771 772 776 775 777 778 774 773 774 774 776 774 771 771 771 770 774 778 780 783 783 783 786 788 790 793 791 795 808 811 809 819 819 805 803 805 800 803 807 803 800 799 800 801 800 801 802 801 807 817 823 824 818 811 812 817 820 822 825 830 834 835 838 840 842 845 848 851 853
816 815 814 817 817 810 806 805 805 806 803 795 792 789 787 783 778 778 779 771 765 767 769 772 776 777 776 777 775 770 766 765 764 763 763 766 768 771 774 776 777 782 787 791 794 794 796 804 809 813 824 821 808 808 808 803 812 817 805 797 797 797 797 798 798 797 796 801 814 819 812 806 808 812 818 823 825 826 829 829 831 835 838 840 843 845 848 851